[Iaude] MPEC H11: 2024 GN6 [a=1.83,e=0.30,i=24.8,H=20.0]

mpec at cfa.harvard.edu mpec at cfa.harvard.edu
Wed Apr 17 01:17:35 EDT 2024


M.P.E.C. 2024-H11                                Issued 2024 April 17, 05:16 UT

     The Minor Planet Electronic Circulars contain information on unusual
         minor planets, routine data on comets and natural satellites,
         and occasional editorial announcements.  They are published
    on behalf of Division F of the International Astronomical Union by the
          Minor Planet Center, Smithsonian Astrophysical Observatory,
                          Cambridge, MA 02138, U.S.A.
			  
             Prepared using the Tamkin Foundation Computer Network

                              MPC at CFA.HARVARD.EDU
            URL https://www.minorplanetcenter.net/    ISSN 1523-6714

                                    2024 GN6                                    


Observations:
     K24G06N*1C2024 04 13.17179909 53 44.801+53 38 32.03         21.66GVEH011G96
     K24G06N 1C2024 04 13.17767509 53 45.524+53 38 14.68         21.48GVEH011G96
     K24G06N 1C2024 04 13.18355809 53 46.295+53 37 57.22         20.95GVEH011G96
     K24G06N KC2024 04 13.28489509 53 59.399+53 32 48.08         21.46GVEH011I52
     K24G06N KC2024 04 13.28831409 53 59.845+53 32 37.36         21.37GVEH011I52
     K24G06N KC2024 04 13.29172709 54 00.299+53 32 26.45         20.51GVEH011I52
     K24G06N KC2024 04 13.29513509 54 00.760+53 32 16.69         21.32GVEH011I52
     K24G06N  C2024 04 13.33300309 54 05.736+53 30 19.75         21.1 GVEH011H01
     K24G06N  C2024 04 13.33868709 54 06.493+53 30 02.06         20.9 GVEH011H01
     K24G06N  C2024 04 13.34522009 54 07.366+53 29 42.35         21.2 GVEH011H01
     K24G06N  C2024 04 13.35523609 54 08.699+53 29 11.05         21.0 GVEH011H01
     K24G06N KC2024 04 14.06031109 55 45.82 +52 53 39.3          21.4 GVEH011H21
     K24G06N KC2024 04 14.06869909 55 46.87 +52 53 13.6          20.9 GVEH011H21
     K24G06N KC2024 04 14.07447809 55 47.63 +52 52 56.2          21.2 GVEH011H21
     K24G06N KC2024 04 14.12105209 55 54.044+52 50 35.45         21.82GVEH011I52
     K24G06N KC2024 04 14.12334609 55 54.361+52 50 28.93         21.15GVEH011I52
     K24G06N KC2024 04 14.12564509 55 54.682+52 50 21.91         21.26GVEH011I52
     K24G06N KC2024 04 14.12793209 55 54.923+52 50 15.22         21.62GVEH011I52
     K24G06N  C2024 04 14.34472809 56 22.782+52 39 10.19         21.2 GVEH011H01
     K24G06N  C2024 04 14.35252209 56 23.817+52 38 45.93         21.2 GVEH011H01
     K24G06N  C2024 04 14.36588409 56 25.608+52 38 04.72         21.0 GVEH011H01
     K24G06N  C2024 04 14.36965109 56 26.095+52 37 53.28         21.1 GVEH011H01
     K24G06N KC2024 04 15.08117509 58 02.62 +52 01 50.2          22.0 GVEH011H21
     K24G06N KC2024 04 15.08956409 58 03.71 +52 01 24.8          21.9 GVEH011H21
     K24G06N KC2024 04 15.09515509 58 04.44 +52 01 07.9          21.6 GVEH011H21
     K24G06N KC2024 04 17.15925510 02 36.280+50 15 37.20               VEH011I52
     K24G06N KC2024 04 17.16524510 02 37.020+50 15 19.80         21.85GVEH011I52
     K24G06N KC2024 04 17.17123910 02 37.790+50 15 00.90         21.13GVEH011I52
     K24G06N KC2024 04 17.17721310 02 38.530+50 14 43.00         21.24GVEH011I52

Observer details:
G96 Mt. Lemmon Survey.  Observer K. W. Wierzchos.  Measurers T. Beuden, V. F.
    Carvajal, D. Fay, J. B. Fazekas, D. C. Fuls, A. R. Gibbs, A. D. Grauer, H.
    Groeller, J. K. Hogan, R. A. Kowalski, S. M. Larson, G. J. Leonard, D.
    Rankin, R. L. Seaman, F. C. Shelly, K. W. Wierzchos.  1.5-m reflector +
    10K CCD.
H01 Magdalena Ridge Observatory, Socorro.  Observers W. H. Ryan, E. V. Ryan.
    Measurer W. H. Ryan.  2.4-m f/8.9 Ritchey-Chretien + CCD.
H21 Astronomical Research Observatory, Westfield.  Observer R. Holmes.
    Measurers T. Linder, R. Holmes, L. Horn.  0.76-m f/3.0 astrograph + CCD.
I52 Steward Observatory, Mt. Lemmon Station.  Observers V. F. Carvajal, D.
    Rankin, J. B. Fazekas.  Measurers T. Beuden, V. F. Carvajal, D. Fay, J. B.
    Fazekas, D. C. Fuls, A. R. Gibbs, A. D. Grauer, H. Groeller, J. K. Hogan,
    R. A. Kowalski, S. M. Larson, G. J. Leonard, D. Rankin, R. L. Seaman, F.
    C. Shelly, K. W. Wierzchos.  1.0-m prime focus + CCD.

Orbital elements:
2024 GN6                                                 Earth MOID = 0.4536 AU
Epoch 2024 Mar. 31.0 TT = JDT 2460400.5                 MPC                     
M   9.33596              (2000.0)            P               Q                  
n   0.39672983     Peri.  104.64109     -0.79688597     -0.52721974             
a   1.8343103      Node    44.64100     +0.24874521     -0.73130043             
e   0.2981634      Incl.   24.82200     +0.55054388     -0.43271125             
P   2.48           H   20.06          G   0.15           U   9                  
Residuals in seconds of arc
240413 G96  0.3+  0.4-    240413 H01  0.1-  0.1-    240414 H01  0.3+  0.0
240413 G96  0.0   0.0     240414 H21  0.1+  0.3+    240414 H01  0.2+  0.2+
240413 G96  0.1+  0.4+    240414 H21  0.1-  0.0     240415 H21  0.4-  0.3-
240413 I52  0.2-  0.1+    240414 H21  0.1+  0.1+    240415 H21  0.1-  0.0
240413 I52  0.2-  0.2-    240414 I52  0.0   0.5-    240415 H21  0.1+  0.1+
240413 I52  0.1-  0.6-    240414 I52  0.2+  0.1-    240417 I52  0.1-  0.8-
240413 I52  0.0   0.1+    240414 I52  0.4+  0.2-    240417 I52  0.1-  0.3+
240413 H01  0.1-  0.2+    240414 I52  0.0   0.1+    240417 I52  0.2+  0.1-
240413 H01  0.1-  0.0     240414 H01  0.1+  0.0     240417 I52  0.3+  0.4+
240413 H01  0.1-  0.3+    240414 H01  0.1+  0.1-

Ephemeris:
2024 GN6                 a,e,i = 1.83, 0.30, 25                  q = 1.2874
Date    TT    R. A. (2000) Decl.     Delta      r    Elong.  Phase     V
2024 03 18    08 36 56.4 +72 45 46   0.6365  1.2903   102.3    48.9    21.5
...
2024 04 02    09 26 02.8 +62 36 34   0.6471  1.3045   102.7    48.4    21.5
...
2024 04 10    09 46 22.0 +56 16 35   0.6597  1.3166   102.9    47.9    21.6
...
2024 04 16    10 00 04.3 +51 14 59   0.6735  1.3276   102.9    47.5    21.6
2024 04 17    10 02 15.5 +50 23 47   0.6763  1.3296   102.9    47.4    21.6
2024 04 18    10 04 25.1 +49 32 23   0.6791  1.3316   102.9    47.3    21.6
...
2024 04 24    10 16 55.3 +44 21 21   0.6990  1.3447   102.7    46.9    21.7
...
2024 05 02    10 32 37.0 +37 26 37   0.7334  1.3644   102.0    46.3    21.8
...
2024 05 17    11 00 16.8 +25 04 11   0.8233  1.4072    99.7    45.1    22.1

A. U. Tomatic                (C) Copyright 2024 MPC           M.P.E.C. 2024-H11





More information about the Iaude mailing list